Location: Newark
(35.8833°N, 14.5000°E)
Time: 13:06:29
(UTC+00:00)

Altair - Pass Details

Date: 24 November 2019
Orbit: 1502 x 1682 km, 47.2° (Epoch: 09 December)

Event Time Altitude Azimuth Distance (km) Brightness Sun altitude
Rises 23:49:31 0° 226° (SW) 4,695 - -69.6°
Reaches altitude 10° 23:52:36 10° 224° (SW) 3,694 - -69.1°
Maximum altitude 00:01:50 75° 141° (SE) 1,550 - -67.7°
Drops below altitude 10° 00:10:58 10° 58° (ENE) 3,654 - -66.2°
Exits shadow 00:12:00 - 58° (ENE) 3,992 9.9 -66.1°
Sets 00:13:59 0° 57° (ENE) 4,641 10.4 -65.7°
